Muscle Shoals, AL

11:19 AM CDT on March 25, 2017 (GMT -0500)
Northwest Alabama Regional

Weather History for KMSL - November, 2013

Change the Weather History Date:

Tuesday, November 5, 2013

  Actual Average Record
Temperature  
Mean Temperature 59 °F 56 °F  
Max Temperature 68 °F 68 °F 84 °F (1909)
Min Temperature 50 °F 44 °F 19 °F (1991)
Degree Days  
Heating Degree Days 6 10  
Month to date heating degree days 46 47  
Since 1 July heating degree days 176 215  
Cooling Degree Days 0 0  
Month to date cooling degree days 0 4  
Year to date cooling degree days 1894 1868  
Growing Degree Days 8 (Base 50)    
Moisture  
Dew Point 39 °F    
Average Humidity 55    
Maximum Humidity 71    
Minimum Humidity 39    
Precipitation  
Precipitation 0.00 in 0.13 in 2.36 in (1948)
Month to date precipitation 0.00 0.66  
Year to date precipitation 47.16 43.52  
Snow  
Snow 0.00 in - - ()
Month to date snowfall 0.0  
Since 1 July snowfall 0.0  
Since 1 September snowfall 0.0  
Snow Depth 0.00 in    
Sea Level Pressure  
Sea Level Pressure 30.31 in    
Wind  
Wind Speed 8 mph (SE)    
Max Wind Speed 17 mph    
Max Gust Speed 22 mph    
Visibility 10 miles    
Events      
T = Trace of Precipitation, MM = Missing Value Source: NWS Daily Summary

Daily Weather History Graph

Daily Weather History Graph

Search for Another Location

Airport or City:

Trip Planner

Search our weather history database for the weather conditions in past years. The results will help you decide how hot, cold, wet, or windy it might be!

Date:

Astronomy

Nov. 05, 2013 Rise Set
Actual Time 6:15 AM CST 4:52 PM CST
Civil Twilight 5:48 AM CST 5:18 PM CST
Nautical Twilight 5:18 AM CST 5:48 PM CST
Astronomical Twilight 4:49 AM CST 6:18 PM CST
Moon 8:26 AM CST (11/5) 6:57 PM CST (11/5)
Length of Visible Light 11h 30m
Length of Day
10h 37m
Waxing Crescent, 7% of the Moon is Illuminated
Nov 5
Waxing Crescent
Nov 9
First Quarter
Nov 17
Full
Nov 25
Last Quarter
Dec 2
New

Hourly Weather History & Observations

Time (CST) Temp. Dew Point Humidity Pressure Visibility Wind Dir Wind Speed Gust Speed Precip Events Conditions
12:53 AM 55.0 °F 37.0 °F 51% 30.34 in 10.0 mi SE 8.1 mph - N/A   Clear
1:53 AM 54.0 °F 37.0 °F 53% 30.33 in 10.0 mi ESE 9.2 mph - N/A   Clear
2:53 AM 53.1 °F 36.0 °F 52% 30.33 in 10.0 mi ESE 6.9 mph - N/A   Clear
3:53 AM 53.1 °F 35.1 °F 50% 30.33 in 10.0 mi SE 8.1 mph - N/A   Clear
4:53 AM 52.0 °F 35.1 °F 53% 30.35 in 10.0 mi SE 6.9 mph - N/A   Clear
5:53 AM 51.1 °F 35.1 °F 54% 30.35 in 10.0 mi ESE 6.9 mph - N/A   Mostly Cloudy
6:53 AM 51.1 °F 35.1 °F 54% 30.36 in 10.0 mi ESE 8.1 mph - N/A   Scattered Clouds
7:53 AM 55.0 °F 36.0 °F 49% 30.38 in 10.0 mi SE 12.7 mph 18.4 mph N/A   Clear
8:53 AM 55.0 °F 36.0 °F 49% 30.38 in 10.0 mi SE 6.9 mph - N/A   Mostly Cloudy
9:53 AM 59.0 °F 37.0 °F 44% 30.38 in 10.0 mi SE 10.4 mph - N/A   Overcast
10:53 AM 60.1 °F 37.0 °F 42% 30.38 in 10.0 mi SE 9.2 mph - N/A   Overcast
11:53 AM 63.0 °F 37.9 °F 40% 30.34 in 10.0 mi SE 9.2 mph - N/A   Overcast
12:53 PM 64.9 °F 39.0 °F 39% 30.30 in 10.0 mi SE 10.4 mph - N/A   Overcast
1:53 PM 64.9 °F 39.9 °F 40% 30.28 in 10.0 mi ESE 8.1 mph - N/A   Clear
2:53 PM 66.9 °F 42.1 °F 40% 30.27 in 10.0 mi SE 10.4 mph - N/A   Clear
3:53 PM 66.0 °F 42.1 °F 42% 30.26 in 10.0 mi ESE 10.4 mph - N/A   Clear
4:53 PM 63.0 °F 41.0 °F 45% 30.26 in 10.0 mi ESE 8.1 mph - N/A   Clear
5:53 PM 61.0 °F 42.1 °F 50% 30.26 in 10.0 mi ESE 10.4 mph - N/A   Clear
6:53 PM 57.9 °F 42.1 °F 56% 30.26 in 10.0 mi ESE 8.1 mph - N/A   Clear
7:53 PM 55.9 °F 42.1 °F 60% 30.26 in 10.0 mi ESE 3.5 mph - N/A   Clear
8:53 PM 55.0 °F 42.1 °F 62% 30.26 in 10.0 mi Calm Calm - N/A   Clear
9:53 PM 51.1 °F 42.1 °F 71% 30.26 in 10.0 mi SE 4.6 mph - N/A   Mostly Cloudy
10:53 PM 55.0 °F 42.1 °F 62% 30.25 in 10.0 mi Calm Calm - N/A   Mostly Cloudy
11:53 PM 53.1 °F 42.1 °F 66% 30.25 in 10.0 mi SE 5.8 mph - N/A   Partly Cloudy